Weather History for Mitchell, SD

Change the Weather History Date:

Sunday, February 16, 2014

  Actual Average Record
Temperature  
Mean Temperature 24 °F 24 °F  
Max Temperature 37 °F 34 °F 64 °F (1981)
Min Temperature 11 °F 14 °F -34 °F (1936)
Degree Days  
Heating Degree Days 41 41  
Month to date heating degree days 855 689  
Since 1 July heating degree days 5418 5056  
Cooling Degree Days 0 0  
Month to date cooling degree days 0 0  
Year to date cooling degree days 0 0  
Moisture  
Dew Point 14 °F    
Average Humidity 72    
Maximum Humidity 88    
Minimum Humidity 56    
Precipitation  
Precipitation T in 0.01 in 0.66 in (1938)
Month to date precipitation 0.16 0.20  
Year to date precipitation 0.33 0.42  
Snow  
Snow T in - 8.00 in (1938)
Month to date snowfall 3.2  
Since 1 July snowfall 19.4  
Snow Depth T in    
Sea Level Pressure  
Sea Level Pressure 29.99 in    
Wind  
Wind Speed 18 mph (ESE)    
Max Wind Speed 33 mph    
Max Gust Speed 41 mph    
Visibility 10 miles    
Events      
T = Trace of Precipitation, MM = Missing Value Source: NWS Daily Summary

Daily Weather History Graph

Daily Weather History Graph

Search for Another Location

Airport:

Trip Planner

Search our weather history database for the weather conditions in past years. The results will help you decide how hot, cold, wet, or windy it might be!

Date:

Astronomy

Feb. 16, 2014 Rise Set
Actual Time 7:29 AM CST 6:03 PM CST
Civil Twilight 6:59 AM CST 6:33 PM CST
Nautical Twilight 6:26 AM CST 7:06 PM CST
Astronomical Twilight 5:53 AM CST 7:40 PM CST
Moon 8:07 PM CST 7:55 AM CST
Length of Visible Light 11h 33m
Length of Day
10h 34m
Full, 97% of the Moon is Illuminated
Feb 16
Full
Feb 22
Last Quarter
Mar 1
New
Mar 8
First Quarter
Mar 16
Full

Hourly Weather History & Observations

Time (CST) Temp. Windchill Dew Point Humidity Pressure Visibility Wind Dir Wind Speed Gust Speed Precip Events Conditions
12:53 AM 16.0 °F 2.3 °F 10.9 °F 81% 30.17 in 10.0 mi North 12.7 mph - N/A   Overcast
1:53 AM 15.1 °F 2.5 °F 10.0 °F 80% 30.19 in 10.0 mi North 10.4 mph - 0.00 in   Overcast
2:53 AM 12.9 °F 3.8 °F 9.0 °F 84% 30.19 in 10.0 mi NNE 5.8 mph - N/A   Overcast
3:33 AM 10.4 °F 2.2 °F 6.8 °F 85% 30.13 in 10.0 mi NE 4.6 mph - N/A   Overcast
3:53 AM 10.9 °F - 7.0 °F 84% 30.21 in 10.0 mi Calm Calm - N/A   Overcast
4:38 AM 10.4 °F 2.2 °F 6.8 °F 85% 30.15 in 10.0 mi NNE 4.6 mph - N/A   Overcast
4:53 AM 12.0 °F 4.1 °F 7.0 °F 80% 30.21 in 10.0 mi NNE 4.6 mph - N/A   Overcast
5:53 AM 12.0 °F 1.5 °F 7.0 °F 80% 30.19 in 10.0 mi ENE 6.9 mph - N/A   Overcast
6:53 AM 12.9 °F 2.6 °F 9.0 °F 84% 30.18 in 10.0 mi East 6.9 mph - N/A   Overcast
7:53 AM 14.0 °F 1.2 °F 10.0 °F 84% 30.16 in 10.0 mi ESE 10.4 mph - N/A   Overcast
8:35 AM 14.0 °F -0.8 °F 10.4 °F 86% 30.09 in 10.0 mi ESE 13.8 mph - N/A   Overcast
8:42 AM 14.0 °F -1.4 °F 10.4 °F 86% 30.08 in 10.0 mi ESE 15.0 mph - N/A   Overcast
8:53 AM 15.1 °F 0.5 °F 10.9 °F 84% 30.14 in 10.0 mi ESE 13.8 mph - N/A   Overcast
9:53 AM 17.1 °F 1.5 °F 12.0 °F 81% 30.11 in 10.0 mi SE 17.3 mph - N/A   Overcast
10:53 AM 19.0 °F 3.6 °F 12.9 °F 77% 30.07 in 10.0 mi SE 18.4 mph 26.5 mph N/A   Mostly Cloudy
11:18 AM 19.4 °F 3.2 °F 12.2 °F 74% 30.00 in 10.0 mi SE 20.7 mph - N/A   Scattered Clouds
11:53 AM 19.9 °F 3.5 °F 12.9 °F 74% 30.05 in 10.0 mi SE 21.9 mph - N/A   Clear
12:53 PM 25.0 °F 9.5 °F 15.1 °F 66% 29.98 in 10.0 mi SE 24.2 mph 29.9 mph N/A   Clear
1:53 PM 27.0 °F 11.9 °F 16.0 °F 63% 29.91 in 10.0 mi SE 25.3 mph 33.4 mph N/A   Clear
2:53 PM 30.0 °F 15.7 °F 17.1 °F 59% 29.85 in 10.0 mi SE 26.5 mph 35.7 mph N/A   Clear
3:53 PM 30.9 °F 18.7 °F 17.1 °F 57% 29.86 in 10.0 mi SE 19.6 mph 31.1 mph N/A   Clear
4:53 PM 33.1 °F 20.3 °F 19.0 °F 56% 29.81 in 10.0 mi SE 24.2 mph 34.5 mph N/A   Clear
5:53 PM 34.0 °F 21.3 °F 21.0 °F 59% 29.78 in 10.0 mi SSE 25.3 mph 33.4 mph N/A   Clear
6:53 PM 32.0 °F 18.4 °F 21.0 °F 64% 29.76 in 10.0 mi SSE 26.5 mph 36.8 mph N/A   Clear
7:53 PM 32.0 °F 17.9 °F 23.0 °F 69% 29.73 in 10.0 mi SSE 28.8 mph 38.0 mph N/A   Clear
8:53 PM 30.9 °F 16.7 °F 24.1 °F 76% 29.70 in 10.0 mi SSE 27.6 mph 38.0 mph N/A   Clear
9:53 PM 30.0 °F 16.6 °F 24.1 °F 79% 29.68 in 10.0 mi SSE 23.0 mph 31.1 mph N/A   Clear
10:53 PM 32.0 °F 19.2 °F 26.1 °F 79% 29.66 in 10.0 mi SSE 23.0 mph 28.8 mph N/A   Clear
11:53 PM 37.0 °F 26.2 °F 28.9 °F 73% 29.65 in 10.0 mi South 21.9 mph 32.2 mph N/A   Mostly Cloudy